GW6871 Weather Reports


time (UTC)temp
C
wind
direction
speed
KPH
gust
KPH
rain 1hr
cm
rain 24hr
cm
rain mn
cm
humidity
%
barometer
mb
20260505065431 31 275 0.0 3.2 0.00 0.08 0.08 63 1010.7
20260505064927 31 227 1.6 1.6 0.00 0.08 0.08 62 1010.7
20260505064424 31 288 1.6 4.8 0.00 0.08 0.08 62 1010.8
20260505063923 31 258 1.6 3.2 0.00 0.08 0.08 61 1010.8
20260505063419 31 300 0.0 1.6 0.00 0.08 0.08 63 1010.7
20260505062915 30 284 0.0 1.6 0.00 0.08 0.08 65 1011.1
20260505062413 31 272 0.0 1.6 0.00 0.08 0.08 64 1011.1
20260505061909 31 312 0.0 1.6 0.00 0.08 0.08 64 1011.1
20260505061408 31 280 0.0 1.6 0.00 0.08 0.08 61 1010.9
20260505060905 31 271 0.0 1.6 0.00 0.08 0.08 61 1011.4
20260505060401 31 346 0.0 3.2 0.00 0.08 0.08 64 1011.2
20260505055858 31 287 1.6 3.2 0.00 0.08 0.08 62 1011.3
20260505055354 31 278 0.0 3.2 0.00 0.08 0.08 64 1011.7
20260505054851 31 260 0.0 3.2 0.00 0.08 0.08 63 1011.4
20260505054348 30 282 0.0 3.2 0.00 0.08 0.08 66 1011.7
20260505053847 30 320 0.0 3.2 0.00 0.08 0.08 68 1011.8
20260505053343 30 267 3.2 3.2 0.00 0.08 0.08 64 1011.7
20260505052840 30 228 1.6 1.6 0.00 0.08 0.08 65 1011.8
20260505052337 30 295 0.0 1.6 0.00 0.08 0.08 66 1011.8
20260505051834 29 333 3.2 4.8 0.00 0.08 0.08 69 1011.8
20260505051331 29 273 3.2 6.4 0.00 0.08 0.08 69 1012.0
20260505050829 28 279 3.2 3.2 0.00 0.08 0.08 70 1012.1
20260505050328 28 331 1.6 3.2 0.00 0.08 0.08 69 1012.1
20260505041757 27 335 1.6 3.2 0.00 0.08 0.08 70 1012.1
20260505041255 27 38 0.0 1.6 0.00 0.08 0.08 68 1012.1
20260505040752 28 124 0.0 3.2 0.00 0.08 0.08 69 1012.0
20260505040249 28 305 0.0 1.6 0.00 0.08 0.08 70 1011.7
20260505035746 27 320 0.0 1.6 0.00 0.08 0.08 75 1011.8
20260505035242 27 331 3.2 3.2 0.00 0.08 0.08 73 1011.9
20260505034739 27 41 1.6 1.6 0.00 0.08 0.08 72 1011.9
20260505034236 27 14 1.6 6.4 0.00 0.08 0.08 74 1012.1
20260505033732 27 37 1.6 4.8 0.00 0.08 0.08 73 1011.9
20260505033230 27 31 1.6 3.2 0.00 0.08 0.08 72 1012.0
20260505032728 27 354 1.6 3.2 0.00 0.08 0.08 73 1012.2
20260505032223 27 330 0.0 1.6 0.00 0.08 0.08 73 1012.0
20260505031721 26 19 0.0 3.2 0.00 0.08 0.08 75 1012.0
20260505031217 26 298 0.0 1.6 0.00 0.08 0.08 76 1012.0
20260505030715 26 355 0.0 3.2 0.00 0.08 0.08 76 1012.1
20260505030211 26 301 0.0 1.6 0.00 0.08 0.08 76 1012.3
20260505025707 25 303 3.2 3.2 0.00 0.08 0.08 77 1012.3
20260505025205 25 341 1.6 1.6 0.00 0.08 0.08 80 1012.2
20260505024703 24 315 0.0 1.6 0.00 0.08 0.08 82 1012.2
20260505024159 24 323 0.0 1.6 0.00 0.08 0.08 82 1012.2
20260505023657 24 343 1.6 3.2 0.00 0.08 0.08 82 1012.0
20260505023154 24 324 0.0 4.8 0.00 0.08 0.08 82 1012.2
20260505022651 24 324 1.6 4.8 0.00 0.08 0.08 83 1012.2
20260505022148 24 7 3.2 4.8 0.00 0.08 0.08 83 1012.4
20260505021645 23 305 6.4 9.7 0.00 0.08 0.08 83 1012.3
20260505021142 23 319 1.6 9.7 0.00 0.08 0.08 84 1012.0
20260505020637 23 331 0.0 1.6 0.00 0.08 0.08 85 1011.7
20260505020133 23 272 3.2 4.8 0.00 0.08 0.08 86 1011.5
20260505015631 23 282 0.0 3.2 0.00 0.08 0.08 86 1011.5
20260505015127 23 333 1.6 3.2 0.00 0.08 0.08 86 1011.4
20260505014624 23 296 1.6 3.2 0.00 0.08 0.08 86 1011.3
20260505014121 23 320 1.6 3.2 0.00 0.08 0.08 86 1011.1
20260505013619 23 344 1.6 4.8 0.00 0.08 0.08 86 1010.8
20260505013116 23 318 1.6 1.6 0.00 0.08 0.08 86 1011.0
20260505012614 23 339 1.6 1.6 0.00 0.08 0.08 86 1010.8
20260505012111 23 324 1.6 4.8 0.00 0.08 0.08 86 1010.5
20260505011606 23 342 0.0 4.8 0.00 0.08 0.08 86 1010.7
20260505011104 23 330 0.0 3.2 0.00 0.08 0.08 86 1010.2
20260505010604 22 26 0.0 1.6 0.00 0.08 0.08 86 1010.0
20260505005557 22 155 1.6 1.6 0.00 0.08 0.08 86 1009.7
20260505005055 22 171 0.0 1.6 0.00 0.08 0.08 86 1009.8
20260505004552 22 171 0.0 0.0 0.00 0.08 0.08 87 1009.6
20260505004049 22 170 0.0 1.6 0.00 0.08 0.08 87 1009.3
20260505003546 22 164 0.0 1.6 0.00 0.08 0.08 87 1009.2
20260505003043 22 165 0.0 3.2 0.00 0.08 0.08 87 1009.2
20260505002543 22 85 0.0 0.0 0.00 0.08 0.08 88 1009.0
20260505002043 22 177 1.6 3.2 0.00 0.08 0.08 87 1008.7
20260505001540 22 173 1.6 3.2 0.00 0.08 0.08 87 1008.8
20260505001037 22 173 3.2 4.8 0.00 0.08 0.08 87 1008.9
20260505000535 22 183 1.6 3.2 0.00 0.08 0.08 88 1008.6
20260505000032 22 183 3.2 14.5 0.00 0.08 0.08 88 1008.6
20260504235528 22 167 3.2 6.4 0.00 0.08 0.08 88 1008.3
20260504235025 22 125 4.8 9.7 0.00 0.08 0.08 88 1008.1
20260504234522 22 168 4.8 9.7 0.00 0.08 0.08 88 1008.2
20260504234019 22 143 8.0 14.5 0.00 0.08 0.08 89 1008.3
20260504233514 22 188 3.2 9.7 0.00 0.08 0.08 89 1008.4
20260504233012 22 181 1.6 1.6 0.00 0.08 0.08 89 1008.5
20260504232508 22 147 3.2 3.2 0.00 0.08 0.08 89 1008.2
20260504232006 22 184 3.2 9.7 0.00 0.08 0.08 89 1008.0
20260504231502 22 198 4.8 6.4 0.00 0.08 0.08 89 1008.0
20260504230959 22 158 3.2 4.8 0.00 0.08 0.08 89 1007.7
20260504230455 22 150 3.2 9.7 0.00 0.08 0.08 89 1008.0
20260504225954 22 135 1.6 3.2 0.00 0.08 0.08 89 1008.6
20260504225450 22 142 0.0 4.8 0.00 0.08 0.08 89 1009.2
20260504224948 22 172 1.6 4.8 0.00 0.08 0.08 89 1009.3
20260504224444 22 187 1.6 3.2 0.00 0.08 0.08 89 1009.4
20260504223941 22 222 0.0 3.2 0.00 0.08 0.08 89 1009.6
20260504223437 22 177 0.0 3.2 0.00 0.08 0.08 89 1009.9
20260504222933 22 166 3.2 3.2 0.00 0.08 0.08 89 1010.3
20260504222431 22 230 1.6 4.8 0.00 0.08 0.08 89 1010.3
20260504221928 22 153 4.8 9.7 0.00 0.08 0.08 89 1009.7
20260504221425 22 151 1.6 3.2 0.00 0.08 0.08 89 1010.2
20260504220922 22 77 0.0 1.6 0.00 0.08 0.08 89 1010.4
20260504220419 21 79 0.0 1.6 0.00 0.08 0.08 89 1010.4
20260504215916 21 15 0.0 1.6 0.18 0.08 0.08 89 1010.3
20260504215413 21 343 1.6 3.2 0.18 0.08 0.08 89 1010.8
20260504214909 21 20 1.6 4.8 0.00 0.05 0.05 89 1010.4
20260504214406 21 77 0.0 3.2 0.00 0.05 0.05 89 1010.7
20260504213902 21 353 0.0 3.2 0.00 0.05 0.05 89 1011.0
20260504213358 21 22 0.0 1.6 0.13 0.05 0.05 89 1011.3
20260504212856 21 289 3.2 3.2 0.13 0.05 0.05 88 1011.1
20260504212351 21 15 0.0 3.2 0.00 0.03 0.03 88 1011.2
20260504211850 21 326 1.6 4.8 0.00 0.03 0.03 88 1011.1
20260504211345 21 337 0.0 3.2 0.00 0.03 0.03 88 1011.4
20260504210843 21 18 0.0 3.2 0.00 0.03 0.03 88 1011.4
20260504210340 21 322 1.6 1.6 0.00 0.03 0.03 88 1011.3
20260504205837 21 324 1.6 4.8 0.00 0.03 0.03 88 1011.4
20260504205335 21 343 3.2 9.7 0.00 0.03 0.03 88 1011.6
20260504204833 21 280 1.6 4.8 0.00 0.03 0.03 87 1011.7
20260504204331 21 32 4.8 9.7 0.00 0.03 0.03 87 1011.8
20260504203830 21 322 1.6 3.2 0.00 0.03 0.03 87 1011.7
20260504203326 21 305 1.6 6.4 0.00 0.03 0.03 87 1012.1
20260504202822 21 291 1.6 6.4 0.00 0.03 0.03 87 1011.8
20260504202320 21 315 1.6 4.8 0.00 0.03 0.03 87 1011.9
20260504201816 22 347 1.6 4.8 0.00 0.03 0.03 87 1011.8
20260504201314 21 317 1.6 6.4 0.18 0.03 0.03 87 1011.6
20260504200811 22 336 1.6 9.7 0.18 0.03 0.03 87 1011.9
20260504200307 22 78 3.2 9.7 0.00 0.00 0.00 87 1011.7
20260504195803 22 308 3.2 4.8 0.00 0.00 0.00 87 1011.7
20260504195259 21 288 4.8 11.3 0.00 0.00 0.00 86 1011.7
20260504194756 21 304 3.2 14.5 0.00 0.00 0.00 86 1012.0
20260504194253 22 306 3.2 12.9 0.00 0.00 0.00 86 1011.9
20260504193749 22 8 11.3 16.1 0.00 0.00 0.00 85 1011.7
20260504193246 22 39 16.1 25.7 0.00 0.00 0.00 83 1011.7
20260504192745 22 295 9.7 24.1 0.00 0.00 0.00 82 1011.8
20260504192242 22 230 3.2 16.1 0.00 0.00 0.00 81 1011.5
20260504191741 23 19 3.2 17.7 0.00 0.00 0.00 80 1011.6
20260504191237 23 344 3.2 14.5 0.00 0.00 0.00 81 1011.4
20260504190733 23 229 1.6 11.3 0.00 0.00 0.00 80 1011.5
20260504190230 23 359 4.8 12.9 0.00 0.00 0.00 81 1011.5
20260504185726 23 214 4.8 9.7 0.00 0.00 0.00 82 1011.3
20260504185223 23 16 8.0 17.7 0.00 0.00 0.00 84 1011.3
20260504184719 23 332 6.4 12.9 0.00 0.00 0.00 85 1011.1
20260504184215 23 15 4.8 16.1 0.00 0.00 0.00 86 1011.2
20260504183711 23 307 1.6 14.5 0.00 0.00 0.00 87 1011.0
20260504183208 23 329 1.6 1.6 0.00 0.00 0.00 87 1010.6
20260504182706 23 317 0.0 1.6 0.00 6.30 6.30 87 1010.4
20260504182203 23 321 0.0 3.2 0.00 6.30 6.30 88 1010.5
20260504181701 23 311 1.6 1.6 0.00 6.30 6.30 88 1010.6
20260504181158 23 224 0.0 1.6 0.00 6.30 6.30 88 1010.4
20260504180657 23 181 0.0 0.0 0.00 6.30 6.30 88 1010.5
20260504180155 23 184 0.0 1.6 0.00 6.30 6.30 88 1010.3
20260504175652 23 159 0.0 1.6 0.00 6.30 6.30 88 1010.4
20260504175149 23 155 0.0 0.0 0.00 6.30 6.30 88 1010.6
20260504174647 23 155 0.0 0.0 0.00 6.30 6.30 87 1010.7
20260504174143 24 155 0.0 0.0 0.00 6.30 6.30 87 1010.5
20260504173640 24 155 0.0 1.6 0.00 6.30 6.30 87 1010.4
20260504173138 24 155 0.0 1.6 0.00 6.30 6.30 87 1010.6
20260504172635 24 164 0.0 0.0 0.00 6.30 6.30 87 1010.5
20260504172131 24 164 0.0 0.0 0.00 6.30 6.30 87 1010.5
20260504171627 24 164 0.0 0.0 0.00 6.30 6.30 86 1010.5
20260504171125 24 164 0.0 0.0 0.00 6.30 6.30 86 1010.2
20260504170621 24 164 0.0 0.0 0.00 6.30 6.30 86 1010.2
20260504170119 24 164 0.0 1.6 0.00 6.30 6.30 86 1010.2
20260504151004 23 174 3.2 4.8 0.00 6.30 6.30 83 1009.8
20260504150501 23 172 1.6 4.8 0.00 6.30 6.30 84 1009.6
20260504140927 23 187 1.6 11.3 0.00 6.30 6.30 81 1008.0
20260504140424 23 187 3.2 11.3 0.00 6.30 6.30 81 1008.0
20260504130349 23 177 4.8 12.9 0.00 6.30 6.30 84 1008.1
20260504120311 23 167 3.2 6.4 0.13 6.30 6.30 90 1007.1
20260504110236 23 304 11.3 24.1 5.16 0.89 0.89 84 1006.3
20260504100159 33 184 1.6 3.2 0.00 0.00 0.00 63 1006.3
20260504090122 35 193 0.0 3.2 0.00 0.00 0.00 55 1007.2
20260504081558 36 195 0.0 3.2 0.00 0.00 0.00 56 1008.3
20260504081054 37 182 3.2 3.2 0.00 0.00 0.00 51 1008.3
20260504080551 36 290 3.2 4.8 0.00 0.00 0.00 51 1008.4